KG6MOZ Weather Reports


Display with metric or nautical units.
time (UTC)temp
F
wind
direction
speed
MPH
gust
MPH
rain 1hr
in
rain 24hr
in
rain mn
in
humidity
%
barometer
mb
20260507140037 55 165 1.0 3.0 0.00 0.00 0.00 91 1017.4
20260507135513 55 205 1.0 2.0 0.00 0.00 0.00 91 1017.4
20260507135016 55 196 1.0 3.0 0.00 0.00 0.00 91 1017.3
20260507134530 55 153 1.0 3.0 0.00 0.00 0.00 91 1017.3
20260507134012 55 178 1.0 3.0 0.00 0.00 0.00 91 1017.1
20260507133513 55 129 1.0 3.0 0.00 0.00 0.00 91 1017.3
20260507133033 55 141 1.0 3.0 0.00 0.00 0.00 91 1017.2
20260507132510 54 128 2.0 3.0 0.00 0.00 0.00 91 1017.2
20260507132013 54 132 1.0 3.0 0.00 0.00 0.00 91 1017.2
20260507131555 54 142 2.0 3.0 0.00 0.00 0.00 91 1017.3
20260507131014 54 144 2.0 4.0 0.00 0.00 0.00 91 1017.1
20260507130514 54 146 0.0 4.0 0.00 0.00 0.00 92 1017.1
20260507130029 54 137 1.0 3.0 0.00 0.00 0.00 92 1017.1
20260507125514 54 93 1.0 3.0 0.00 0.00 0.00 92 1017.1
20260507125014 54 149 1.0 3.0 0.00 0.00 0.00 92 1017.0
20260507124531 54 123 1.0 4.0 0.00 0.00 0.00 92 1017.0
20260507124014 54 141 2.0 4.0 0.00 0.00 0.00 92 1017.0
20260507123515 53 119 0.0 4.0 0.00 0.00 0.00 92 1016.8
20260507123040 54 119 2.0 4.0 0.00 0.00 0.00 92 1016.8
20260507122518 54 129 2.0 4.0 0.00 0.00 0.00 92 1016.8
20260507122014 54 124 2.0 4.0 0.00 0.00 0.00 92 1016.8
20260507121528 54 132 2.0 4.0 0.00 0.00 0.00 92 1016.9
20260507121013 54 140 2.0 4.0 0.00 0.00 0.00 92 1016.8
20260507120515 54 137 2.0 5.0 0.00 0.00 0.00 93 1016.8
20260507120031 54 144 2.0 5.0 0.00 0.00 0.00 93 1016.7
20260507115513 53 153 2.0 5.0 0.00 0.00 0.00 93 1016.8
20260507115013 54 153 1.0 4.0 0.00 0.00 0.00 93 1016.8
20260507114529 53 137 2.0 4.0 0.00 0.00 0.00 93 1016.8
20260507114018 53 133 2.0 4.0 0.00 0.00 0.00 93 1016.7
20260507113513 53 124 2.0 3.0 0.00 0.00 0.00 93 1016.7
20260507113059 53 115 0.0 4.0 0.00 0.00 0.00 92 1016.8
20260507112518 53 93 1.0 4.0 0.00 0.00 0.00 92 1016.8
20260507112013 54 108 2.0 4.0 0.00 0.00 0.00 92 1016.7
20260507111532 54 137 2.0 4.0 0.00 0.00 0.00 92 1016.8
20260507111012 54 126 0.0 3.0 0.00 0.00 0.00 92 1016.8
20260507110512 54 126 1.0 3.0 0.00 0.00 0.00 92 1016.9
20260507110037 54 133 2.0 3.0 0.00 0.00 0.00 92 1016.9
20260507105515 54 124 2.0 3.0 0.00 0.00 0.00 92 1017.0
20260507105012 54 137 1.0 3.0 0.00 0.00 0.00 92 1017.0
20260507104528 54 93 0.0 3.0 0.00 0.00 0.00 92 1017.0
20260507104015 54 126 0.0 3.0 0.00 0.00 0.00 92 1017.0
20260507103515 54 119 1.0 3.0 0.00 0.00 0.00 92 1016.9
20260507103029 54 93 0.0 2.0 0.00 0.00 0.00 92 1017.1
20260507102513 54 119 1.0 2.0 0.00 0.00 0.00 92 1017.1
20260507102015 54 0 0.0 3.0 0.00 0.00 0.00 92 1017.1
20260507101531 54 129 0.0 3.0 0.00 0.00 0.00 92 1017.2
20260507101013 54 178 1.0 3.0 0.00 0.00 0.00 92 1017.3
20260507100512 54 126 1.0 3.0 0.00 0.00 0.00 92 1017.2
20260507100042 55 119 0.0 2.0 0.00 0.00 0.00 92 1017.3
20260507095514 55 51 0.0 2.0 0.00 0.00 0.00 92 1017.3
20260507095014 55 0 1.0 3.0 0.00 0.00 0.00 92 1017.3
20260507094531 55 0 0.0 3.0 0.00 0.00 0.00 92 1017.3
20260507094012 55 108 1.0 3.0 0.00 0.00 0.00 92 1017.4
20260507093512 55 0 1.0 2.0 0.00 0.00 0.00 92 1017.4
20260507093031 55 93 1.0 2.0 0.00 0.00 0.00 92 1017.4
20260507092514 55 119 0.0 3.0 0.00 0.00 0.00 92 1017.4
20260507092013 55 0 0.0 3.0 0.00 0.00 0.00 92 1017.5
20260507091537 55 111 1.0 3.0 0.00 0.00 0.00 92 1017.5
20260507091013 55 146 1.0 2.0 0.00 0.00 0.00 92 1017.6
20260507090515 55 111 0.0 2.0 0.00 0.00 0.00 91 1017.6
20260507090031 55 137 0.0 2.0 0.00 0.00 0.00 91 1017.8
20260507085514 55 137 1.0 4.0 0.00 0.00 0.00 91 1017.7
20260507085013 55 131 1.0 4.0 0.00 0.00 0.00 91 1017.7
20260507084544 55 133 2.0 3.0 0.00 0.00 0.00 90 1017.8
20260507084016 56 131 2.0 3.0 0.00 0.00 0.00 90 1017.8
20260507083514 56 132 0.0 2.0 0.00 0.00 0.00 91 1017.8
20260507083030 56 9 0.0 2.0 0.00 0.00 0.00 91 1017.9
20260507082514 56 38 1.0 2.0 0.00 0.00 0.00 90 1018.0
20260507082013 56 26 0.0 2.0 0.00 0.00 0.00 90 1017.9
20260507081532 56 309 0.0 1.0 0.00 0.00 0.00 90 1017.9
20260507081017 56 0 0.0 2.0 0.00 0.00 0.00 91 1018.0
20260507080515 56 0 0.0 2.0 0.00 0.00 0.00 90 1018.1
20260507080032 56 9 0.0 2.0 0.00 0.00 0.00 90 1018.1
20260507075515 56 0 0.0 2.0 0.00 0.00 0.00 90 1018.2
20260507075019 56 334 0.0 2.0 0.00 0.00 0.00 90 1018.1
20260507074531 56 67 0.0 2.0 0.00 0.00 0.00 90 1018.2
20260507074014 56 34 0.0 2.0 0.00 0.00 0.00 90 1018.1
20260507073516 56 51 0.0 2.0 0.00 0.00 0.00 90 1018.2
20260507073029 56 334 0.0 2.0 0.00 0.00 0.00 90 1018.1
20260507072515 56 67 1.0 2.0 0.00 0.00 0.00 90 1018.1
20260507072015 56 325 0.0 2.0 0.00 0.00 0.00 90 1018.2
20260507071535 57 34 1.0 2.0 0.00 0.00 0.00 90 1018.2
20260507071016 57 9 0.0 2.0 0.00 0.00 0.00 90 1018.1
20260507070514 57 9 0.0 2.0 0.00 0.00 0.00 90 1018.2
20260507070030 57 108 0.0 2.0 0.00 0.00 0.00 91 1018.3
20260507065515 56 0 0.0 2.0 0.00 0.00 0.00 91 1018.3
20260507065016 57 0 0.0 2.0 0.00 0.00 0.00 91 1018.3
20260507064533 57 0 0.0 1.0 0.00 0.00 0.00 91 1018.4
20260507064015 57 0 0.0 1.0 0.00 0.00 0.00 91 1018.4
20260507063516 57 0 0.0 2.0 0.00 0.00 0.00 92 1018.4
20260507063030 57 0 0.0 2.0 0.00 0.00 0.00 91 1018.4
20260507062514 57 319 1.0 2.0 0.00 0.00 0.00 91 1018.4
20260507062013 57 247 0.0 2.0 0.00 0.00 0.00 91 1018.5
20260507061536 57 221 0.0 2.0 0.00 0.00 0.00 91 1018.3
20260507061014 57 221 0.0 3.0 0.00 0.00 0.00 91 1018.4
20260507060514 58 298 1.0 3.0 0.00 0.00 0.00 91 1018.3
20260507060036 58 321 1.0 3.0 0.00 0.00 0.00 91 1018.4
20260507055516 58 291 0.0 3.0 0.00 0.00 0.00 91 1018.4
20260507055015 58 282 1.0 3.0 0.00 0.00 0.00 90 1018.4
20260507054537 58 330 1.0 3.0 0.00 0.00 0.00 90 1018.3
20260507054015 58 325 2.0 4.0 0.00 0.00 0.00 90 1018.3
20260507053517 58 295 1.0 4.0 0.00 0.00 0.00 90 1018.3
20260507053032 58 316 2.0 4.0 0.00 0.00 0.00 89 1018.3
20260507052515 58 325 1.0 3.0 0.00 0.00 0.00 89 1018.3
20260507052014 58 325 1.0 3.0 0.00 0.00 0.00 89 1018.3
20260507051528 58 325 1.0 3.0 0.00 0.00 0.00 89 1018.3
20260507051018 58 9 1.0 3.0 0.00 0.00 0.00 88 1018.3
20260507050514 58 9 1.0 3.0 0.00 0.00 0.00 88 1018.3
20260507050049 58 9 1.0 3.0 0.00 0.00 0.00 88 1018.2
20260507045515 58 312 1.0 3.0 0.00 0.00 0.00 89 1018.3
20260507045015 59 319 1.0 3.0 0.00 0.00 0.00 88 1018.3
20260507044531 59 313 1.0 3.0 0.00 0.00 0.00 88 1018.3
20260507044014 59 291 1.0 5.0 0.00 0.00 0.00 88 1018.3
20260507043514 59 313 2.0 5.0 0.00 0.00 0.00 88 1018.3
20260507043030 59 291 2.0 5.0 0.00 0.00 0.00 88 1018.2
20260507042514 59 298 2.0 4.0 0.00 0.00 0.00 88 1018.0
20260507042015 59 309 1.0 4.0 0.00 0.00 0.00 87 1018.0
20260507041530 59 309 2.0 6.0 0.00 0.00 0.00 87 1017.9
20260507041014 59 298 2.0 6.0 0.00 0.00 0.00 87 1018.0
20260507040514 59 286 2.0 6.0 0.00 0.00 0.00 87 1018.0
20260507040028 59 291 2.0 5.0 0.00 0.00 0.00 87 1018.0
20260507035514 59 340 2.0 7.0 0.00 0.00 0.00 87 1017.9
20260507035015 60 301 2.0 7.0 0.00 0.00 0.00 87 1017.8
20260507034535 60 302 3.0 7.0 0.00 0.00 0.00 87 1017.7
20260507034018 60 302 2.0 7.0 0.00 0.00 0.00 86 1017.8
20260507033514 60 325 2.0 7.0 0.00 0.00 0.00 86 1017.8
20260507033038 60 316 2.0 7.0 0.00 0.00 0.00 86 1017.7
20260507032516 60 298 2.0 7.0 0.00 0.00 0.00 86 1017.6
20260507032016 60 288 2.0 5.0 0.00 0.00 0.00 85 1017.6
20260507031532 60 316 2.0 7.0 0.00 0.00 0.00 85 1017.5
20260507031014 61 277 2.0 7.0 0.00 0.00 0.00 84 1017.5
20260507030513 61 294 2.0 8.0 0.00 0.00 0.00 84 1017.5
20260507030036 61 300 3.0 9.0 0.00 0.00 0.00 83 1017.4
20260507025514 61 313 3.0 9.0 0.00 0.00 0.00 82 1017.4
20260507025017 61 277 3.0 9.0 0.00 0.00 0.00 82 1017.5
20260507024535 62 291 4.0 9.0 0.00 0.00 0.00 80 1017.3
20260507024014 62 282 3.0 8.0 0.00 0.00 0.00 80 1017.4
20260507023514 62 296 3.0 8.0 0.00 0.00 0.00 79 1017.2
20260507023030 62 304 4.0 8.0 0.00 0.00 0.00 78 1017.3
20260507022515 63 316 3.0 8.0 0.00 0.00 0.00 77 1017.3
20260507022015 63 334 4.0 8.0 0.00 0.00 0.00 75 1017.2
20260507021545 63 296 4.0 9.0 0.00 0.00 0.00 73 1017.4
20260507021015 63 287 2.0 9.0 0.00 0.00 0.00 74 1017.3
20260507020515 64 277 3.0 8.0 0.00 0.00 0.00 74 1017.3
20260507020033 64 307 3.0 10.0 0.00 0.00 0.00 73 1017.3
20260507015515 64 323 3.0 10.0 0.00 0.00 0.00 71 1017.3
20260507015015 64 301 5.0 11.0 0.00 0.00 0.00 73 1017.3
20260507014529 64 265 4.0 12.0 0.00 0.00 0.00 73 1017.4
20260507014017 64 317 6.0 12.0 0.00 0.00 0.00 73 1017.3
20260507013514 65 312 5.0 12.0 0.00 0.00 0.00 73 1017.2
20260507013034 65 273 7.0 12.0 0.00 0.00 0.00 74 1017.3
20260507012517 65 334 6.0 12.0 0.00 0.00 0.00 74 1017.3
20260507012015 65 303 5.0 12.0 0.00 0.00 0.00 72 1017.3
20260507011532 66 315 4.0 12.0 0.00 0.00 0.00 72 1017.2
20260507011014 66 340 6.0 12.0 0.00 0.00 0.00 72 1017.3
20260507010515 66 275 5.0 12.0 0.00 0.00 0.00 73 1017.2
20260507010040 66 317 6.0 12.0 0.00 0.00 0.00 72 1017.2
20260507005515 66 296 5.0 14.0 0.00 0.00 0.00 72 1017.1
20260507005021 67 275 6.0 15.0 0.00 0.00 0.00 70 1017.2
20260507004529 67 311 6.0 15.0 0.00 0.00 0.00 71 1017.2
20260507004015 67 313 6.0 15.0 0.00 0.00 0.00 70 1017.1
20260507003515 66 291 6.0 15.0 0.00 0.00 0.00 72 1017.3
20260507003029 67 296 6.0 15.0 0.00 0.00 0.00 69 1017.1
20260507002513 67 304 6.0 13.0 0.00 0.00 0.00 68 1017.1
20260507002015 67 0 5.0 15.0 0.00 0.00 0.00 68 1016.9
20260507001533 67 294 6.0 15.0 0.00 0.00 0.00 67 1017.0
20260507001015 67 252 6.0 12.0 0.00 0.00 0.00 68 1017.0
20260507000522 67 291 7.0 15.0 0.00 0.00 0.00 68 1016.8
20260507000034 68 270 8.0 15.0 0.00 0.00 0.00 67 1016.7
20260506235514 68 268 7.0 14.0 0.00 0.00 0.00 66 1016.8
20260506235020 67 259 7.0 14.0 0.00 0.00 0.00 65 1016.8
20260506234534 68 336 7.0 17.0 0.00 0.00 0.00 64 1016.7
20260506234014 68 268 5.0 17.0 0.00 0.00 0.00 66 1016.7
20260506233514 68 282 7.0 15.0 0.00 0.00 0.00 66 1016.6
20260506233030 68 286 7.0 15.0 0.00 0.00 0.00 63 1016.7
20260506232515 69 245 7.0 13.0 0.00 0.00 0.00 64 1016.8
20260506232014 69 284 7.0 14.0 0.00 0.00 0.00 66 1016.8
20260506231529 68 265 7.0 14.0 0.00 0.00 0.00 68 1016.7
20260506231014 68 279 7.0 13.0 0.00 0.00 0.00 68 1017.1
20260506230514 69 284 6.0 14.0 0.00 0.00 0.00 68 1017.0
20260506230033 68 312 7.0 15.0 0.00 0.00 0.00 68 1017.0
20260506225518 69 323 7.0 15.0 0.00 0.00 0.00 68 1017.0
20260506225014 68 319 7.0 13.0 0.00 0.00 0.00 68 1017.0
20260506224530 69 286 6.0 15.0 0.00 0.00 0.00 69 1017.1
20260506224016 68 287 6.0 16.0 0.00 0.00 0.00 68 1017.1
20260506223516 68 293 8.0 16.0 0.00 0.00 0.00 68 1017.2
20260506223027 68 325 7.0 14.0 0.00 0.00 0.00 69 1017.2
20260506222514 68 280 8.0 14.0 0.00 0.00 0.00 67 1017.3
20260506222016 69 15 6.0 15.0 0.00 0.00 0.00 66 1017.3
20260506221530 69 297 7.0 16.0 0.00 0.00 0.00 68 1017.3
20260506221012 69 296 9.0 16.0 0.00 0.00 0.00 67 1017.3
20260506220514 68 284 9.0 16.0 0.00 0.00 0.00 67 1017.3
20260506220035 69 312 8.0 16.0 0.00 0.00 0.00 67 1017.5
20260506215515 69 301 7.0 15.0 0.00 0.00 0.00 68 1017.4
20260506215014 69 238 7.0 17.0 0.00 0.00 0.00 67 1017.4
20260506214528 69 293 9.0 17.0 0.00 0.00 0.00 67 1017.6
20260506214015 70 287 7.0 15.0 0.00 0.00 0.00 65 1017.5
20260506213514 69 280 7.0 16.0 0.00 0.00 0.00 67 1017.5
20260506213031 69 254 8.0 18.0 0.00 0.00 0.00 66 1017.5
20260506212514 70 347 8.0 18.0 0.00 0.00 0.00 65 1017.5
20260506212018 69 249 9.0 18.0 0.00 0.00 0.00 66 1017.4
20260506211530 70 271 9.0 18.0 0.00 0.00 0.00 65 1017.5
20260506211015 69 265 9.0 18.0 0.00 0.00 0.00 68 1017.5
20260506210513 69 307 8.0 16.0 0.00 0.00 0.00 67 1017.6
20260506210035 69 330 7.0 16.0 0.00 0.00 0.00 66 1017.6
20260506205513 69 306 8.0 18.0 0.00 0.00 0.00 66 1017.5
20260506205011 68 329 8.0 18.0 0.00 0.00 0.00 67 1017.7
20260506204545 69 316 7.0 18.0 0.00 0.00 0.00 66 1017.7
20260506204016 70 286 8.0 16.0 0.00 0.00 0.00 65 1017.7
20260506203515 70 298 8.0 19.0 0.00 0.00 0.00 65 1017.6
20260506203031 69 287 9.0 19.0 0.00 0.00 0.00 66 1017.7
20260506202513 69 337 8.0 16.0 0.00 0.00 0.00 65 1017.7
20260506202012 69 317 9.0 17.0 0.00 0.00 0.00 65 1017.8
20260506201534 70 280 7.0 17.0 0.00 0.00 0.00 65 1017.8
20260506201014 69 288 7.0 16.0 0.00 0.00 0.00 66 1017.8
20260506200516 70 298 9.0 16.0 0.00 0.00 0.00 64 1017.8
20260506200028 70 297 6.0 16.0 0.00 0.00 0.00 64 1017.8
20260506195514 70 245 6.0 14.0 0.00 0.00 0.00 65 1017.9
20260506195019 70 254 6.0 14.0 0.00 0.00 0.00 64 1018.0
20260506194533 70 282 6.0 14.0 0.00 0.00 0.00 65 1018.0
20260506194014 70 284 7.0 15.0 0.00 0.00 0.00 64 1018.1
20260506193513 70 311 7.0 15.0 0.00 0.00 0.00 64 1018.2
20260506193028 70 327 8.0 15.0 0.00 0.00 0.00 63 1018.1
20260506192513 70 284 7.0 16.0 0.00 0.00 0.00 64 1018.1
20260506192014 69 280 7.0 16.0 0.00 0.00 0.00 65 1018.2
20260506191528 70 291 5.0 12.0 0.00 0.00 0.00 64 1018.2
20260506191015 70 312 4.0 12.0 0.00 0.00 0.00 63 1018.2
20260506190515 70 312 5.0 12.0 0.00 0.00 0.00 64 1018.3
20260506190028 69 309 6.0 12.0 0.00 0.00 0.00 64 1018.3
20260506185515 70 265 5.0 12.0 0.00 0.00 0.00 65 1018.4
20260506185014 69 257 6.0 13.0 0.00 0.00 0.00 64 1018.5
20260506184531 69 0 6.0 13.0 0.00 0.00 0.00 65 1018.5
20260506184011 68 252 5.0 14.0 0.00 0.00 0.00 65 1018.5
20260506183514 68 286 6.0 14.0 0.00 0.00 0.00 66 1018.6
20260506183030 68 248 7.0 14.0 0.00 0.00 0.00 66 1018.7
20260506182515 69 313 7.0 13.0 0.00 0.00 0.00 66 1018.7
20260506182014 68 309 5.0 13.0 0.00 0.00 0.00 65 1018.7
20260506181532 68 325 4.0 14.0 0.00 0.00 0.00 65 1018.8
20260506181017 67 277 5.0 14.0 0.00 0.00 0.00 67 1018.8
20260506180519 67 307 6.0 12.0 0.00 0.00 0.00 65 1018.8
20260506180030 67 294 5.0 11.0 0.00 0.00 0.00 65 1018.9
20260506175515 67 305 3.0 11.0 0.00 0.00 0.00 65 1018.9
20260506175013 68 317 4.0 11.0 0.00 0.00 0.00 64 1018.8
20260506174528 67 265 3.0 11.0 0.00 0.00 0.00 66 1019.0
20260506174017 66 282 2.0 11.0 0.00 0.00 0.00 66 1019.0
20260506173514 67 247 3.0 11.0 0.00 0.00 0.00 66 1019.2
20260506173031 66 0 3.0 14.0 0.00 0.00 0.00 68 1019.4
20260506172514 65 287 5.0 14.0 0.00 0.00 0.00 67 1019.3
20260506172014 66 209 3.0 10.0 0.00 0.00 0.00 67 1019.2
20260506171539 64 303 4.0 11.0 0.00 0.00 0.00 68 1019.4
20260506171015 65 51 4.0 12.0 0.00 0.00 0.00 67 1019.4
20260506170512 65 344 3.0 12.0 0.00 0.00 0.00 68 1019.4
20260506170029 65 51 4.0 9.0 0.00 0.00 0.00 67 1019.2
20260506165513 64 0 3.0 12.0 0.00 0.00 0.00 71 1019.3
20260506165014 64 310 5.0 12.0 0.00 0.00 0.00 70 1019.4
20260506164527 64 34 2.0 11.0 0.00 0.00 0.00 69 1019.2
20260506164013 63 282 5.0 11.0 0.00 0.00 0.00 70 1019.3
20260506163516 64 342 3.0 9.0 0.00 0.00 0.00 70 1019.4
20260506163031 63 255 3.0 9.0 0.00 0.00 0.00 72 1019.4
20260506162512 62 330 3.0 10.0 0.00 0.00 0.00 73 1019.4
20260506162012 62 301 3.0 10.0 0.00 0.00 0.00 73 1019.3
20260506161537 62 298 4.0 10.0 0.00 0.00 0.00 75 1019.4
20260506161016 61 325 4.0 9.0 0.00 0.00 0.00 74 1019.3
20260506160513 61 317 4.0 9.0 0.00 0.00 0.00 75 1019.4
20260506160041 61 0 1.0 7.0 0.00 0.00 0.00 77 1019.3
20260506155513 60 83 1.0 6.0 0.00 0.02 0.00 77 1019.3
20260506155012 60 56 1.0 6.0 0.00 0.02 0.00 78 1019.2
20260506154532 60 53 3.0 9.0 0.00 0.02 0.00 78 1019.2
20260506154012 60 41 4.0 9.0 0.00 0.02 0.00 77 1019.3
20260506153514 59 282 2.0 8.0 0.00 0.02 0.00 78 1019.4
20260506153028 59 334 1.0 5.0 0.00 0.02 0.00 78 1019.3
20260506152513 60 38 2.0 6.0 0.00 0.02 0.00 77 1019.4
20260506152012 60 48 2.0 7.0 0.00 0.02 0.00 78 1019.3
20260506151534 59 144 3.0 7.0 0.00 0.02 0.00 80 1019.5
20260506151015 58 126 3.0 7.0 0.00 0.02 0.00 80 1019.4
20260506150518 58 65 2.0 7.0 0.00 0.02 0.00 81 1019.4
20260506150032 58 111 3.0 7.0 0.00 0.02 0.00 82 1019.4
20260506145512 57 158 3.0 7.0 0.00 0.10 0.00 83 1019.4
20260506145017 56 138 3.0 6.0 0.00 0.10 0.00 84 1019.3
20260506144530 56 121 2.0 5.0 0.00 0.10 0.00 86 1019.3
20260506144023 55 158 2.0 5.0 0.00 0.10 0.00 87 1019.4
20260506143516 54 153 2.0 5.0 0.00 0.10 0.00 87 1019.3
20260506143041 54 151 2.0 6.0 0.00 0.10 0.00 87 1019.2
20260506142513 54 144 2.0 6.0 0.00 0.10 0.00 87 1019.1
20260506142013 54 128 3.0 6.0 0.00 0.10 0.00 88 1019.1
20260506141529 53 123 3.0 6.0 0.00 0.10 0.00 88 1019.1
20260506141014 53 150 3.0 6.0 0.00 0.10 0.00 89 1019.1
20260506140514 53 129 2.0 5.0 0.00 0.10 0.00 89 1018.9